| time (UTC) | temp C | wind direction | speed KPH | gust KPH | rain 1hr cm | rain 24hr cm | rain mn cm | humidity % | barometer mb |
| 20260506080503 | 10 | 217 | 4.8 | 9.7 | 0.00 | 0.15 | 0.00 | 71 | 1018.7 |
| 20260506073503 | 11 | 107 | 4.8 | 6.4 | 0.00 | 0.15 | 0.00 | 69 | 1018.5 |
| 20260506073003 | 11 | 123 | 3.2 | 6.4 | 0.00 | 0.15 | 0.00 | 70 | 1018.4 |
| 20260506072600 | 10 | 135 | 1.6 | 4.8 | 0.00 | 0.18 | 0.00 | 74 | 1018.3 |
| 20260506072540 | 11 | 141 | 3.2 | 6.4 | 0.00 | 0.15 | 0.00 | 72 | 1018.4 |
| 20260506071752 | 10 | 136 | 1.6 | 4.8 | 0.00 | 0.18 | 0.00 | 76 | 1018.4 |
| 20260506071002 | 10 | 135 | 1.6 | 4.8 | 0.00 | 0.18 | 0.00 | 74 | 1018.3 |
| 20260506070502 | 11 | 136 | 0.0 | 3.2 | 0.00 | 0.18 | 0.00 | 73 | 1018.3 |
| 20260506062448 | 12 | 230 | 9.7 | 22.5 | 0.00 | 0.20 | 0.18 | 67 | 1017.9 |
| 20260506061948 | 12 | 210 | 11.3 | 17.7 | 0.00 | 0.20 | 0.18 | 67 | 1018.1 |
| 20260506061448 | 12 | 223 | 11.3 | 17.7 | 0.00 | 0.20 | 0.18 | 67 | 1017.8 |
| 20260506060947 | 12 | 266 | 11.3 | 16.1 | 0.00 | 0.20 | 0.18 | 66 | 1017.6 |
| 20260506060450 | 12 | 229 | 9.7 | 14.5 | 0.00 | 0.20 | 0.18 | 66 | 1017.5 |
| 20260506050947 | 13 | 169 | 6.4 | 17.7 | 0.00 | 0.20 | 0.18 | 65 | 1016.7 |
| 20260506050731 | 13 | 140 | 4.8 | 11.3 | 0.00 | 0.20 | 0.18 | 65 | 1016.6 |
| 20260506044944 | 13 | 159 | 8.0 | 12.9 | 0.00 | 0.23 | 0.18 | 62 | 1016.6 |
| 20260506044447 | 13 | 174 | 8.0 | 12.9 | 0.00 | 0.23 | 0.18 | 62 | 1016.7 |
| 20260506044238 | 13 | 160 | 11.3 | 19.3 | 0.00 | 0.23 | 0.18 | 62 | 1016.6 |
| 20260506043441 | 13 | 125 | 9.7 | 19.3 | 0.00 | 0.23 | 0.18 | 62 | 1016.3 |
| 20260506042940 | 13 | 153 | 6.4 | 11.3 | 0.00 | 0.23 | 0.18 | 62 | 1016.3 |
| 20260506042441 | 14 | 163 | 6.4 | 11.3 | 0.00 | 0.23 | 0.18 | 60 | 1016.2 |
| 20260506041940 | 14 | 180 | 6.4 | 11.3 | 0.00 | 0.23 | 0.18 | 59 | 1016.2 |
| 20260506041726 | 14 | 165 | 3.2 | 11.3 | 0.00 | 0.23 | 0.18 | 58 | 1016.1 |
| 20260506040941 | 14 | 182 | 3.2 | 9.7 | 0.00 | 0.23 | 0.18 | 57 | 1016.0 |
| 20260506040442 | 14 | 227 | 6.4 | 14.5 | 0.00 | 0.23 | 0.18 | 58 | 1016.0 |
| 20260506035941 | 14 | 173 | 8.0 | 16.1 | 0.00 | 0.23 | 0.18 | 59 | 1016.0 |
| 20260506035437 | 15 | 200 | 9.7 | 19.3 | 0.00 | 0.23 | 0.18 | 60 | 1015.7 |
| 20260506034936 | 15 | 223 | 8.0 | 19.3 | 0.00 | 0.23 | 0.18 | 59 | 1015.6 |
| 20260506034435 | 15 | 220 | 6.4 | 12.9 | 0.00 | 0.25 | 0.18 | 60 | 1015.5 |
| 20260506033935 | 15 | 229 | 6.4 | 20.9 | 0.00 | 0.25 | 0.18 | 59 | 1015.5 |
| 20260506033434 | 15 | 230 | 6.4 | 20.9 | 0.00 | 0.25 | 0.18 | 58 | 1015.5 |
| 20260506032935 | 15 | 191 | 6.4 | 14.5 | 0.00 | 0.25 | 0.18 | 57 | 1015.4 |
| 20260506032432 | 15 | 215 | 8.0 | 16.1 | 0.00 | 0.25 | 0.18 | 55 | 1015.4 |
| 20260506031931 | 15 | 240 | 8.0 | 16.1 | 0.00 | 0.25 | 0.18 | 54 | 1015.3 |
| 20260506031535 | 15 | 234 | 8.0 | 14.5 | 0.00 | 0.25 | 0.18 | 55 | 1015.3 |
| 20260506031517 | 15 | 232 | 9.7 | 16.1 | 0.00 | 0.25 | 0.18 | 54 | 1015.3 |
| 20260506030430 | 15 | 267 | 6.4 | 11.3 | 0.00 | 0.25 | 0.18 | 56 | 1015.2 |
| 20260506025933 | 15 | 250 | 6.4 | 9.7 | 0.00 | 0.25 | 0.18 | 56 | 1015.0 |
| 20260506025429 | 15 | 229 | 6.4 | 11.3 | 0.00 | 0.25 | 0.18 | 57 | 1015.2 |
| 20260506024929 | 15 | 217 | 8.0 | 12.9 | 0.00 | 0.25 | 0.18 | 55 | 1015.2 |
| 20260506024722 | 15 | 268 | 8.0 | 12.9 | 0.00 | 0.25 | 0.18 | 55 | 1015.0 |
| 20260506023922 | 15 | 285 | 6.4 | 12.9 | 0.00 | 0.25 | 0.18 | 57 | 1014.9 |
| 20260506023415 | 15 | 230 | 4.8 | 9.7 | 0.00 | 0.25 | 0.18 | 57 | 1014.9 |
| 20260506022910 | 15 | 252 | 6.4 | 11.3 | 0.00 | 0.28 | 0.18 | 56 | 1014.8 |
| 20260506022409 | 16 | 224 | 6.4 | 11.3 | 0.00 | 0.28 | 0.18 | 55 | 1014.7 |
| 20260506021910 | 16 | 240 | 6.4 | 11.3 | 0.00 | 0.28 | 0.18 | 54 | 1014.7 |
| 20260506021410 | 16 | 225 | 6.4 | 11.3 | 0.00 | 0.28 | 0.18 | 53 | 1014.6 |
| 20260506020909 | 16 | 194 | 8.0 | 14.5 | 0.00 | 0.28 | 0.18 | 51 | 1014.6 |
| 20260506020704 | 17 | 182 | 8.0 | 16.1 | 0.00 | 0.28 | 0.18 | 50 | 1014.5 |
| 20260506015908 | 17 | 186 | 8.0 | 16.1 | 0.00 | 0.28 | 0.18 | 50 | 1014.5 |
| 20260506015408 | 17 | 178 | 9.7 | 16.1 | 0.00 | 0.28 | 0.18 | 50 | 1014.5 |
| 20260506015017 | 17 | 108 | 9.7 | 19.3 | 0.00 | 0.30 | 0.18 | 50 | 1014.4 |
| 20260506014956 | 17 | 202 | 9.7 | 19.3 | 0.00 | 0.28 | 0.18 | 51 | 1014.5 |
| 20260506013905 | 17 | 163 | 8.0 | 16.1 | 0.00 | 0.30 | 0.18 | 50 | 1014.4 |
| 20260506013405 | 17 | 173 | 6.4 | 14.5 | 0.00 | 0.30 | 0.18 | 50 | 1014.5 |
| 20260506012905 | 17 | 169 | 8.0 | 14.5 | 0.00 | 0.30 | 0.18 | 50 | 1014.5 |
| 20260506012655 | 17 | 154 | 9.7 | 14.5 | 0.00 | 0.30 | 0.18 | 48 | 1014.5 |
| 20260506011902 | 17 | 182 | 9.7 | 16.1 | 0.00 | 0.30 | 0.18 | 49 | 1014.4 |
| 20260506011403 | 17 | 169 | 9.7 | 16.1 | 0.00 | 0.30 | 0.18 | 48 | 1014.5 |
| 20260506010902 | 18 | 192 | 8.0 | 17.7 | 0.00 | 0.30 | 0.18 | 48 | 1014.5 |
| 20260506010401 | 17 | 171 | 9.7 | 17.7 | 0.00 | 0.30 | 0.18 | 49 | 1014.5 |
| 20260506005902 | 17 | 167 | 9.7 | 16.1 | 0.00 | 0.30 | 0.18 | 49 | 1014.4 |
| 20260506005401 | 17 | 194 | 9.7 | 17.7 | 0.00 | 0.33 | 0.18 | 50 | 1014.4 |
| 20260506004901 | 18 | 147 | 9.7 | 17.7 | 0.00 | 0.33 | 0.18 | 49 | 1014.4 |
| 20260506004401 | 18 | 167 | 11.3 | 17.7 | 0.00 | 0.33 | 0.18 | 49 | 1014.4 |
| 20260506003901 | 18 | 163 | 9.7 | 16.1 | 0.00 | 0.33 | 0.18 | 51 | 1014.5 |
| 20260506003401 | 18 | 139 | 9.7 | 20.9 | 0.00 | 0.33 | 0.18 | 52 | 1014.5 |
| 20260506002901 | 18 | 149 | 11.3 | 20.9 | 0.00 | 0.33 | 0.18 | 48 | 1014.5 |
| 20260506002403 | 18 | 140 | 9.7 | 19.3 | 0.00 | 0.33 | 0.18 | 47 | 1014.4 |
| 20260506001954 | 18 | 103 | 6.4 | 19.3 | 0.00 | 0.33 | 0.18 | 47 | 1014.5 |
| 20260506001938 | 18 | 104 | 9.7 | 19.3 | 0.00 | 0.33 | 0.18 | 50 | 1014.4 |
| 20260506001134 | 18 | 188 | 6.4 | 11.3 | 0.00 | 0.33 | 0.18 | 47 | 1014.5 |
| 20260506000401 | 18 | 146 | 8.0 | 14.5 | 0.00 | 0.33 | 0.18 | 46 | 1014.5 |
| 20260506000152 | 18 | 109 | 9.7 | 16.1 | 0.00 | 0.33 | 0.18 | 49 | 1014.5 |
| 20260505235401 | 18 | 115 | 8.0 | 16.1 | 0.00 | 0.33 | 0.18 | 48 | 1014.6 |
| 20260505234902 | 18 | 134 | 4.8 | 12.9 | 0.00 | 0.33 | 0.18 | 50 | 1014.6 |
| 20260505234402 | 18 | 178 | 8.0 | 14.5 | 0.00 | 0.33 | 0.18 | 51 | 1014.5 |
| 20260505234158 | 18 | 101 | 6.4 | 14.5 | 0.00 | 0.36 | 0.18 | 50 | 1014.5 |
| 20260505233403 | 20 | 67 | 6.4 | 12.9 | 0.00 | 0.36 | 0.18 | 49 | 1014.5 |
| 20260505232850 | 20 | 44 | 8.0 | 17.7 | 0.00 | 0.36 | 0.18 | 54 | 1014.6 |
| 20260505232344 | 19 | 92 | 4.8 | 17.7 | 0.00 | 0.36 | 0.18 | 49 | 1014.7 |
| 20260505231838 | 19 | 303 | 4.8 | 12.9 | 0.00 | 0.36 | 0.18 | 49 | 1014.8 |
| 20260505231331 | 17 | 10 | 4.8 | 12.9 | 0.00 | 0.36 | 0.18 | 48 | 1014.7 |
| 20260505230829 | 18 | 213 | 4.8 | 12.9 | 0.00 | 0.36 | 0.18 | 50 | 1014.7 |
| 20260505230320 | 18 | 229 | 4.8 | 12.9 | 0.00 | 0.36 | 0.18 | 48 | 1014.8 |
| 20260505225814 | 18 | 147 | 8.0 | 14.5 | 0.00 | 0.36 | 0.18 | 48 | 1014.9 |
| 20260505225308 | 18 | 155 | 6.4 | 14.5 | 0.00 | 0.36 | 0.18 | 52 | 1014.9 |
| 20260505225100 | 19 | 101 | 3.2 | 11.3 | 0.00 | 0.36 | 0.18 | 52 | 1015.0 |
| 20260505224600 | 18 | 333 | 1.6 | 6.4 | 0.00 | 0.36 | 0.18 | 57 | 1015.0 |
| 20260505224059 | 18 | 249 | 3.2 | 8.0 | 0.00 | 0.36 | 0.18 | 49 | 1015.2 |
| 20260505223307 | 18 | 339 | 4.8 | 9.7 | 0.00 | 0.36 | 0.18 | 48 | 1015.0 |
| 20260505222808 | 20 | 355 | 6.4 | 11.3 | 0.00 | 0.36 | 0.18 | 44 | 1015.2 |
| 20260505222603 | 21 | 59 | 6.4 | 11.3 | 0.00 | 0.36 | 0.18 | 54 | 1015.3 |
| 20260505222059 | 20 | 67 | 4.8 | 9.7 | 0.00 | 0.36 | 0.18 | 54 | 1015.3 |
| 20260505221305 | 20 | 5 | 6.4 | 12.9 | 0.00 | 0.36 | 0.18 | 55 | 1015.3 |
| 20260505221102 | 18 | 93 | 6.4 | 12.9 | 0.00 | 0.36 | 0.18 | 54 | 1015.3 |
| 20260505220302 | 17 | 155 | 8.0 | 14.5 | 0.00 | 0.36 | 0.18 | 55 | 1015.4 |
| 20260505215803 | 17 | 157 | 8.0 | 16.1 | 0.00 | 0.36 | 0.18 | 54 | 1015.4 |
| 20260505215600 | 17 | 132 | 4.8 | 16.1 | 0.00 | 0.36 | 0.18 | 61 | 1015.4 |
| 20260505214804 | 17 | 245 | 3.2 | 8.0 | 0.00 | 0.36 | 0.18 | 62 | 1015.5 |
| 20260505214302 | 17 | 313 | 6.4 | 14.5 | 0.00 | 0.36 | 0.18 | 53 | 1015.6 |
| 20260505213846 | 16 | 105 | 6.4 | 16.1 | 0.00 | 0.38 | 0.18 | 62 | 1015.7 |
| 20260505213834 | 19 | 13 | 8.0 | 16.1 | 0.00 | 0.36 | 0.18 | 60 | 1015.7 |
| 20260505212851 | 16 | 189 | 6.4 | 19.3 | 0.00 | 0.38 | 0.18 | 57 | 1015.9 |
| 20260505212836 | 16 | 85 | 6.4 | 19.3 | 0.00 | 0.38 | 0.18 | 62 | 1015.9 |
| 20260505211801 | 16 | 82 | 6.4 | 16.1 | 0.00 | 0.38 | 0.18 | 63 | 1016.0 |
| 20260505211301 | 17 | 134 | 8.0 | 16.1 | 0.00 | 0.38 | 0.18 | 65 | 1016.0 |
| 20260505210801 | 16 | 106 | 8.0 | 14.5 | 0.00 | 0.38 | 0.18 | 65 | 1016.1 |
| 20260505210301 | 17 | 128 | 9.7 | 16.1 | 0.00 | 0.38 | 0.18 | 67 | 1016.1 |
| 20260505205800 | 16 | 103 | 6.4 | 16.1 | 0.00 | 0.38 | 0.18 | 61 | 1016.2 |
| 20260505205305 | 16 | 190 | 4.8 | 11.3 | 0.00 | 0.38 | 0.18 | 65 | 1016.2 |
| 20260505204802 | 16 | 161 | 4.8 | 12.9 | 0.00 | 0.38 | 0.18 | 72 | 1016.2 |
| 20260505204301 | 16 | 182 | 6.4 | 16.1 | 0.00 | 0.38 | 0.18 | 65 | 1016.2 |
| 20260505203802 | 15 | 138 | 8.0 | 16.1 | 0.00 | 0.41 | 0.18 | 62 | 1016.3 |
| 20260505203300 | 14 | 57 | 8.0 | 14.5 | 0.00 | 0.41 | 0.18 | 66 | 1016.2 |
| 20260505202800 | 15 | 180 | 8.0 | 19.3 | 0.00 | 0.41 | 0.18 | 65 | 1016.2 |
| 20260505202301 | 14 | 132 | 9.7 | 19.3 | 0.00 | 0.41 | 0.18 | 70 | 1016.3 |
| 20260505201802 | 15 | 150 | 8.0 | 16.1 | 0.00 | 0.41 | 0.18 | 67 | 1016.2 |
| 20260505201302 | 13 | 139 | 6.4 | 14.5 | 0.00 | 0.41 | 0.18 | 67 | 1016.3 |
| 20260505200801 | 13 | 170 | 8.0 | 16.1 | 0.00 | 0.41 | 0.18 | 70 | 1016.3 |
| 20260505200303 | 13 | 184 | 9.7 | 17.7 | 0.00 | 0.43 | 0.18 | 78 | 1016.6 |
| 20260505195801 | 12 | 199 | 9.7 | 19.3 | 0.00 | 0.43 | 0.18 | 73 | 1016.4 |
| 20260505195557 | 12 | 146 | 8.0 | 19.3 | 0.00 | 0.43 | 0.18 | 76 | 1016.6 |
| 20260505194800 | 12 | 185 | 8.0 | 14.5 | 0.00 | 0.43 | 0.18 | 74 | 1016.6 |
| 20260505194301 | 12 | 163 | 8.0 | 17.7 | 0.00 | 0.43 | 0.18 | 73 | 1016.6 |
| 20260505193802 | 12 | 128 | 9.7 | 17.7 | 0.00 | 0.43 | 0.18 | 72 | 1016.7 |
| 20260505193300 | 12 | 172 | 9.7 | 17.7 | 0.00 | 0.46 | 0.18 | 72 | 1016.6 |
| 20260505192801 | 11 | 182 | 9.7 | 17.7 | 0.00 | 0.46 | 0.18 | 76 | 1016.4 |
| 20260505192305 | 11 | 138 | 8.0 | 17.7 | 0.00 | 0.46 | 0.18 | 78 | 1016.4 |
| 20260505191802 | 11 | 144 | 9.7 | 17.7 | 0.00 | 0.46 | 0.18 | 74 | 1016.6 |
| 20260505191556 | 11 | 127 | 11.3 | 19.3 | 0.00 | 0.46 | 0.18 | 76 | 1016.6 |
| 20260505190802 | 11 | 119 | 11.3 | 19.3 | 0.00 | 0.46 | 0.18 | 76 | 1016.3 |
| 20260505190301 | 11 | 161 | 9.7 | 19.3 | 0.00 | 0.46 | 0.18 | 77 | 1016.4 |
| 20260505185857 | 10 | 150 | 12.9 | 20.9 | 0.00 | 0.46 | 0.18 | 76 | 1016.4 |
| 20260505185840 | 11 | 125 | 11.3 | 20.9 | 0.00 | 0.46 | 0.18 | 80 | 1016.3 |
| 20260505184801 | 11 | 167 | 11.3 | 20.9 | 0.00 | 0.46 | 0.18 | 81 | 1016.3 |
| 20260505184302 | 10 | 138 | 11.3 | 20.9 | 0.00 | 0.46 | 0.18 | 79 | 1016.4 |
| 20260505183802 | 11 | 142 | 9.7 | 19.3 | 0.00 | 0.46 | 0.18 | 78 | 1016.3 |
| 20260505183300 | 10 | 146 | 8.0 | 16.1 | 0.00 | 0.46 | 0.18 | 81 | 1016.3 |
| 20260505183057 | 10 | 146 | 9.7 | 16.1 | 0.00 | 0.46 | 0.18 | 78 | 1016.4 |
| 20260505182305 | 10 | 146 | 9.7 | 16.1 | 0.00 | 0.46 | 0.18 | 78 | 1016.4 |
| 20260505182057 | 10 | 94 | 8.0 | 14.5 | 0.00 | 0.46 | 0.18 | 83 | 1016.3 |
| 20260505181555 | 10 | 133 | 8.0 | 14.5 | 0.00 | 0.46 | 0.18 | 80 | 1016.3 |
| 20260505181051 | 10 | 137 | 11.3 | 20.9 | 0.00 | 0.46 | 0.18 | 83 | 1016.3 |
| 20260505180301 | 9 | 146 | 12.9 | 20.9 | 0.00 | 0.46 | 0.18 | 83 | 1016.2 |
| 20260505175801 | 9 | 113 | 11.3 | 17.7 | 0.00 | 0.46 | 0.18 | 81 | 1016.1 |
| 20260505175305 | 9 | 122 | 9.7 | 17.7 | 0.00 | 0.46 | 0.18 | 86 | 1016.0 |
| 20260505174802 | 8 | 138 | 11.3 | 16.1 | 0.00 | 0.46 | 0.18 | 84 | 1016.0 |
| 20260505174302 | 8 | 131 | 11.3 | 16.1 | 0.00 | 0.46 | 0.18 | 83 | 1016.0 |
| 20260505173803 | 8 | 129 | 12.9 | 16.1 | 0.00 | 0.46 | 0.18 | 85 | 1016.0 |
| 20260505173608 | 8 | 131 | 9.7 | 16.1 | 0.00 | 0.46 | 0.18 | 84 | 1015.9 |
| 20260505172801 | 8 | 116 | 8.0 | 14.5 | 0.00 | 0.46 | 0.18 | 87 | 1015.7 |
| 20260505172305 | 8 | 148 | 9.7 | 14.5 | 0.00 | 0.46 | 0.18 | 88 | 1015.7 |
| 20260505171801 | 8 | 113 | 8.0 | 14.5 | 0.00 | 0.46 | 0.18 | 85 | 1015.6 |
| 20260505171603 | 8 | 174 | 6.4 | 11.3 | 0.00 | 0.46 | 0.18 | 86 | 1015.5 |
| 20260505170802 | 8 | 140 | 6.4 | 11.3 | 0.00 | 0.46 | 0.18 | 88 | 1015.5 |
| 20260505170607 | 7 | 136 | 6.4 | 11.3 | 0.00 | 0.46 | 0.18 | 87 | 1015.5 |
| 20260505165802 | 8 | 129 | 6.4 | 11.3 | 0.00 | 0.46 | 0.18 | 87 | 1015.5 |
| 20260505165301 | 7 | 140 | 8.0 | 12.9 | 0.00 | 0.46 | 0.18 | 87 | 1015.5 |
| 20260505165057 | 7 | 134 | 8.0 | 12.9 | 0.00 | 0.46 | 0.18 | 87 | 1015.5 |
| 20260505164302 | 7 | 120 | 8.0 | 12.9 | 0.00 | 0.46 | 0.18 | 87 | 1015.4 |
| 20260505164103 | 8 | 88 | 6.4 | 12.9 | 0.00 | 0.46 | 0.18 | 90 | 1015.4 |
| 20260505163302 | 7 | 114 | 4.8 | 6.4 | 0.00 | 0.46 | 0.18 | 90 | 1015.3 |
| 20260505162758 | 7 | 122 | 4.8 | 6.4 | 0.00 | 0.46 | 0.18 | 88 | 1015.4 |
| 20260505162251 | 7 | 100 | 3.2 | 6.4 | 0.00 | 0.46 | 0.18 | 90 | 1015.3 |
| 20260505161746 | 7 | 83 | 3.2 | 6.4 | 0.00 | 0.46 | 0.18 | 90 | 1015.2 |
| 20260505161542 | 6 | 166 | 3.2 | 6.4 | 0.00 | 0.46 | 0.18 | 87 | 1015.2 |
| 20260505160740 | 7 | 166 | 3.2 | 6.4 | 0.00 | 0.46 | 0.18 | 89 | 1015.0 |
| 20260505160640 | 6 | 184 | 3.2 | 8.0 | 0.00 | 0.46 | 0.18 | 89 | 1015.0 |
| 20260505160634 | 6 | 169 | 3.2 | 8.0 | 0.00 | 0.46 | 0.18 | 89 | 1015.0 |
| 20260505153235 | 6 | 221 | 6.4 | 11.3 | 0.03 | 0.46 | 0.18 | 89 | 1015.0 |
| 20260505152734 | 6 | 213 | 6.4 | 12.9 | 0.03 | 0.46 | 0.18 | 89 | 1014.9 |
| 20260505152236 | 6 | 244 | 6.4 | 12.9 | 0.03 | 0.46 | 0.18 | 90 | 1014.8 |
| 20260505151735 | 6 | 234 | 4.8 | 11.3 | 0.03 | 0.46 | 0.18 | 90 | 1014.8 |
| 20260505151234 | 6 | 222 | 4.8 | 9.7 | 0.03 | 0.46 | 0.18 | 90 | 1014.9 |
| 20260505150731 | 6 | 170 | 6.4 | 11.3 | 0.03 | 0.46 | 0.18 | 91 | 1014.8 |
| 20260505150530 | 6 | 185 | 6.4 | 11.3 | 0.03 | 0.46 | 0.18 | 91 | 1014.8 |
| 20260505140450 | 6 | 227 | 3.2 | 6.4 | 0.00 | 0.43 | 0.15 | 92 | 1014.0 |
| 20260505130300 | 6 | 176 | 4.8 | 9.7 | 0.03 | 0.43 | 0.15 | 92 | 1013.2 |
| 20260505130243 | 6 | 178 | 4.8 | 9.7 | 0.03 | 0.43 | 0.15 | 92 | 1013.1 |
| 20260505124748 | 6 | 215 | 4.8 | 6.4 | 0.03 | 0.43 | 0.15 | 92 | 1013.2 |
| 20260505124734 | 6 | 215 | 3.2 | 6.4 | 0.03 | 0.43 | 0.15 | 92 | 1013.2 |
| 20260505123658 | 6 | 215 | 4.8 | 8.0 | 0.03 | 0.43 | 0.13 | 92 | 1013.1 |
| 20260505123447 | 6 | 199 | 3.2 | 8.0 | 0.00 | 0.41 | 0.13 | 92 | 1013.0 |
| 20260505122942 | 6 | 219 | 3.2 | 6.4 | 0.00 | 0.41 | 0.13 | 92 | 1013.0 |
| 20260505122438 | 6 | 219 | 3.2 | 4.8 | 0.00 | 0.41 | 0.13 | 92 | 1013.0 |
| 20260505121652 | 6 | 219 | 3.2 | 4.8 | 0.00 | 0.41 | 0.13 | 92 | 1013.0 |
| 20260505121436 | 6 | 184 | 3.2 | 4.8 | 0.00 | 0.41 | 0.13 | 92 | 1013.0 |
| 20260505120648 | 6 | 184 | 1.6 | 4.8 | 0.00 | 0.41 | 0.13 | 92 | 1013.0 |
| 20260505120435 | 6 | 184 | 3.2 | 6.4 | 0.00 | 0.41 | 0.13 | 92 | 1013.0 |
| 20260505115939 | 6 | 184 | 3.2 | 8.0 | 0.00 | 0.41 | 0.13 | 92 | 1012.8 |
| 20260505115148 | 6 | 156 | 3.2 | 8.0 | 0.00 | 0.41 | 0.13 | 92 | 1012.8 |
| 20260505114933 | 6 | 156 | 3.2 | 8.0 | 0.00 | 0.41 | 0.13 | 92 | 1012.7 |
| 20260505114150 | 6 | 156 | 3.2 | 8.0 | 0.00 | 0.41 | 0.13 | 92 | 1012.8 |
| 20260505113647 | 6 | 156 | 3.2 | 8.0 | 0.00 | 0.41 | 0.13 | 92 | 1012.7 |
| 20260505113145 | 6 | 156 | 3.2 | 8.0 | 0.03 | 0.41 | 0.13 | 92 | 1012.8 |
| 20260505112645 | 6 | 167 | 4.8 | 8.0 | 0.03 | 0.41 | 0.13 | 92 | 1012.8 |
| 20260505112144 | 6 | 206 | 4.8 | 8.0 | 0.03 | 0.41 | 0.13 | 92 | 1013.0 |
| 20260505111645 | 6 | 201 | 6.4 | 8.0 | 0.03 | 0.41 | 0.13 | 92 | 1013.0 |
| 20260505111145 | 6 | 215 | 6.4 | 8.0 | 0.03 | 0.41 | 0.13 | 92 | 1012.8 |
| 20260505110642 | 6 | 226 | 4.8 | 8.0 | 0.03 | 0.41 | 0.13 | 92 | 1012.8 |
| 20260505110548 | 6 | 191 | 3.2 | 9.7 | 0.03 | 0.41 | 0.13 | 92 | 1013.1 |
| 20260505110226 | 6 | 217 | 3.2 | 6.4 | 0.03 | 0.41 | 0.13 | 92 | 1013.1 |
| 20260505102135 | 6 | 142 | 3.2 | 8.0 | 0.03 | 0.38 | 0.10 | 92 | 1013.0 |
| 20260505101636 | 6 | 178 | 3.2 | 6.4 | 0.03 | 0.38 | 0.10 | 92 | 1013.0 |
| 20260505101134 | 6 | 184 | 3.2 | 6.4 | 0.03 | 0.38 | 0.10 | 92 | 1013.1 |
| 20260505100631 | 6 | 176 | 3.2 | 6.4 | 0.03 | 0.38 | 0.10 | 92 | 1013.2 |
| 20260505100132 | 6 | 176 | 4.8 | 8.0 | 0.03 | 0.38 | 0.10 | 92 | 1013.2 |
| 20260505095628 | 6 | 210 | 4.8 | 8.0 | 0.03 | 0.38 | 0.10 | 92 | 1013.3 |
| 20260505095122 | 6 | 210 | 3.2 | 6.4 | 0.03 | 0.38 | 0.10 | 92 | 1013.5 |
| 20260505094615 | 6 | 211 | 4.8 | 8.0 | 0.05 | 0.38 | 0.08 | 92 | 1013.3 |
| 20260505094206 | 6 | 239 | 1.6 | 4.8 | 0.03 | 0.36 | 0.08 | 92 | 1013.4 |
| 20260505094149 | 6 | 212 | 3.2 | 8.0 | 0.03 | 0.36 | 0.08 | 92 | 1013.3 |
| 20260505093108 | 6 | 239 | 0.0 | 4.8 | 0.03 | 0.36 | 0.08 | 92 | 1013.3 |
| 20260505092605 | 6 | 239 | 0.0 | 1.6 | 0.03 | 0.36 | 0.08 | 92 | 1013.5 |
| 20260505092103 | 6 | 239 | 0.0 | 1.6 | 0.03 | 0.36 | 0.08 | 92 | 1013.7 |
| 20260505091602 | 6 | 239 | 1.6 | 4.8 | 0.03 | 0.36 | 0.08 | 92 | 1013.5 |
| 20260505091102 | 6 | 239 | 3.2 | 4.8 | 0.03 | 0.36 | 0.08 | 92 | 1013.4 |
| 20260505090601 | 6 | 239 | 3.2 | 6.4 | 0.05 | 0.36 | 0.08 | 92 | 1013.4 |
| 20260505085600 | 6 | 239 | 1.6 | 4.8 | 0.05 | 0.36 | 0.08 | 92 | 1013.7 |
| 20260505085102 | 6 | 239 | 1.6 | 4.8 | 0.05 | 0.36 | 0.08 | 92 | 1013.8 |
| 20260505084602 | 6 | 239 | 3.2 | 4.8 | 0.03 | 0.33 | 0.05 | 91 | 1014.0 |
| 20260505084102 | 6 | 239 | 1.6 | 4.8 | 0.03 | 0.33 | 0.05 | 92 | 1014.1 |
| 20260505083602 | 6 | 239 | 3.2 | 9.7 | 0.03 | 0.33 | 0.05 | 91 | 1014.1 |
| 20260505083101 | 6 | 239 | 4.8 | 9.7 | 0.03 | 0.33 | 0.05 | 91 | 1013.9 |
| 20260505082848 | 6 | 263 | 3.2 | 6.4 | 0.03 | 0.33 | 0.05 | 91 | 1013.9 |
| 20260505082101 | 6 | 259 | 1.6 | 6.4 | 0.03 | 0.33 | 0.05 | 91 | 1013.8 |
| 20260505081602 | 6 | 170 | 0.0 | 3.2 | 0.05 | 0.33 | 0.05 | 91 | 1013.5 |